When you browse on this site, cookies collect data to enhance your experience and personalize the content and advertising you see.
Visit our Privacy Policy to learn more. By continuing to use the site, you agree to this use of cookies and data.
  • In Austria
  • List of Countries
  • For 7 days
  • Water Temperature
  • Weather Map
  • News
  • Weather Widgets
  • user-avatar
    Login

    Hourly Weather Thunder Bay

    Today, 30 May, Saturday

    Time Temperature Precipitation Wind Pressure Humidity
    00:00 +7°C° 0.1 mm 2 mps 739 mmHg 87%
    01:00 +6°C° 0.1 mm 2 mps 740 mmHg 89%
    02:00 +6°C° 0.1 mm 2 mps 740 mmHg 91%
    03:00 +5°C° 0.1 mm 2 mps 740 mmHg 93%
    04:00 +4°C° 0.2 mm 3 mps 741 mmHg 92%
    05:00 +4°C° 0.2 mm 3 mps 741 mmHg 91%
    06:00 +4°C° 0.2 mm 4 mps 742 mmHg 90%
    07:00 +6°C° 0 mm 4 mps 742 mmHg 75%
    08:00 +7°C° 0 mm 4 mps 742 mmHg 61%
    09:00 +8°C° 0 mm 4 mps 743 mmHg 46%
    10:00 +10°C° 0 mm 4 mps 742 mmHg 42%
    11:00 +12°C° 0 mm 4 mps 742 mmHg 38%
    12:00 +13°C° 0 mm 4 mps 742 mmHg 33%
    13:00 +13°C° 0 mm 4 mps 742 mmHg 33%
    14:00 +14°C° 0 mm 4 mps 741 mmHg 32%
    15:00 +14°C° 0 mm 4 mps 741 mmHg 32%
    16:00 +14°C° 0 mm 4 mps 741 mmHg 34%
    17:00 +14°C° 0 mm 4 mps 741 mmHg 37%
    18:00 +13°C° 0 mm 3 mps 740 mmHg 39%
    19:00 +11°C° 0 mm 3 mps 741 mmHg 45%
    20:00 +10°C° 0 mm 2 mps 741 mmHg 51%
    21:00 +8°C° 0 mm 2 mps 741 mmHg 56%
    22:00 +7°C° 0 mm 2 mps 741 mmHg 57%
    23:00 +7°C° 0 mm 3 mps 740 mmHg 58%

    Tomorrow, 31 May, Sunday

    Time Temperature Precipitation Wind Pressure Humidity
    00:00 +7°C° 0 mm 3 mps 740 mmHg 59%
    01:00 +7°C° 0 mm 3 mps 740 mmHg 60%
    02:00 +6°C° 0 mm 4 mps 741 mmHg 60%
    03:00 +6°C° 0 mm 4 mps 741 mmHg 61%
    04:00 +6°C° 0 mm 4 mps 741 mmHg 60%
    05:00 +7°C° 0 mm 4 mps 741 mmHg 60%
    06:00 +8°C° 0 mm 5 mps 742 mmHg 59%
    07:00 +11°C° 0 mm 4 mps 742 mmHg 51%
    08:00 +13°C° 0 mm 4 mps 742 mmHg 44%
    09:00 +16°C° 0 mm 3 mps 742 mmHg 36%
    10:00 +17°C° 0 mm 3 mps 742 mmHg 35%
    11:00 +18°C° 0 mm 3 mps 741 mmHg 33%
    12:00 +19°C° 0 mm 3 mps 741 mmHg 31%
    13:00 +19°C° 0 mm 4 mps 741 mmHg 32%
    14:00 +19°C° 0 mm 4 mps 740 mmHg 33%
    15:00 +19°C° 0 mm 4 mps 740 mmHg 34%
    16:00 +19°C° 0 mm 4 mps 739 mmHg 38%
    17:00 +18°C° 0 mm 4 mps 739 mmHg 41%
    18:00 +18°C° 0 mm 4 mps 739 mmHg 44%
    19:00 +15°C° 0 mm 4 mps 739 mmHg 48%
    20:00 +13°C° 0 mm 3 mps 739 mmHg 52%
    21:00 +12°C° 0 mm 3 mps 739 mmHg 55%
    22:00 +11°C° 0 mm 3 mps 738 mmHg 58%
    23:00 +10°C° 0 mm 2 mps 738 mmHg 61%

    Day after tomorrow, 1 June, Monday

    Time Temperature Precipitation Wind Pressure Humidity
    00:00 +9°C° 0 mm 2 mps 738 mmHg 64%
    01:00 +9°C° 0 mm 2 mps 738 mmHg 69%
    02:00 +9°C° 0 mm 2 mps 738 mmHg 74%
    03:00 +8°C° 0 mm 2 mps 738 mmHg 78%
    04:00 +10°C° 0 mm 1 mps 738 mmHg 77%
    05:00 +11°C° 0 mm 1 mps 738 mmHg 76%
    06:00 +12°C° 0 mm 1 mps 738 mmHg 74%
    07:00 +13°C° 0 mm 2 mps 737 mmHg 71%
    08:00 +15°C° 0 mm 2 mps 737 mmHg 68%
    09:00 +16°C° 0 mm 3 mps 736 mmHg 64%
    10:00 +16°C° 0 mm 3 mps 736 mmHg 66%
    11:00 +14°C° 0 mm 4 mps 735 mmHg 68%
    12:00 +14°C° 0 mm 4 mps 734 mmHg 70%
    13:00 +13°C° 0.3 mm 4 mps 734 mmHg 78%
    14:00 +12°C° 0.3 mm 3 mps 733 mmHg 86%
    15:00 +11°C° 0.3 mm 3 mps 733 mmHg 94%
    16:00 +12°C° 0.2 mm 2 mps 732 mmHg 95%
    17:00 +12°C° 0.2 mm 2 mps 732 mmHg 96%
    18:00 +10°C° 0.2 mm 2 mps 731 mmHg 97%
    19:00 +12°C° 0 mm 1 mps 731 mmHg 98%
    20:00 +12°C° 0 mm 1 mps 731 mmHg 98%
    21:00 +12°C° 0 mm 1 mps 731 mmHg 99%
    22:00 +12°C° 0 mm 1 mps 731 mmHg 98%
    23:00 +13°C° 0 mm 1 mps 731 mmHg 98%

    2 June, Tuesday

    Time Temperature Precipitation Wind Pressure Humidity
    00:00 +13°C° 0 mm 1 mps 731 mmHg 98%
    01:00 +13°C° 0.1 mm 1 mps 730 mmHg 98%
    02:00 +13°C° 0.1 mm 1 mps 730 mmHg 99%
    03:00 +14°C° 0.1 mm 1 mps 730 mmHg 99%
    04:00 +14°C° 0 mm 1 mps 730 mmHg 98%
    05:00 +15°C° 0 mm 1 mps 730 mmHg 97%
    06:00 +16°C° 0 mm 1 mps 730 mmHg 96%
    07:00 +18°C° 0 mm 2 mps 730 mmHg 86%
    08:00 +20°C° 0 mm 3 mps 731 mmHg 76%
    09:00 +22°C° 0 mm 4 mps 731 mmHg 66%
    10:00 +23°C° 0 mm 4 mps 731 mmHg 55%
    11:00 +26°C° 0 mm 4 mps 731 mmHg 44%
    12:00 +28°C° 0 mm 5 mps 731 mmHg 34%
    13:00 +28°C° 0 mm 5 mps 731 mmHg 32%
    14:00 +29°C° 0 mm 5 mps 731 mmHg 31%
    15:00 +29°C° 0 mm 5 mps 730 mmHg 29%
    16:00 +28°C° 0 mm 4 mps 731 mmHg 33%
    17:00 +27°C° 0 mm 3 mps 731 mmHg 37%
    18:00 +26°C° 0 mm 3 mps 731 mmHg 40%
    19:00 +24°C° 0 mm 3 mps 731 mmHg 45%
    20:00 +21°C° 0 mm 3 mps 731 mmHg 50%
    21:00 +19°C° 0 mm 3 mps 732 mmHg 55%
    22:00 +18°C° 0 mm 2 mps 732 mmHg 58%
    23:00 +18°C° 0 mm 2 mps 732 mmHg 60%

    3 June, Wednesday

    Time Temperature Precipitation Wind Pressure Humidity
    00:00 +17°C° 0 mm 2 mps 732 mmHg 63%
    01:00 +15°C° 0 mm 2 mps 732 mmHg 71%
    02:00 +14°C° 0 mm 2 mps 731 mmHg 79%
    03:00 +13°C° 0 mm 2 mps 731 mmHg 87%
    04:00 +13°C° 0 mm 2 mps 731 mmHg 89%
    05:00 +13°C° 0 mm 1 mps 732 mmHg 91%
    06:00 +13°C° 0 mm 1 mps 732 mmHg 92%
    07:00 +14°C° 0 mm 1 mps 732 mmHg 88%
    08:00 +15°C° 0 mm 1 mps 732 mmHg 83%
    09:00 +16°C° 0 mm 1 mps 732 mmHg 79%
    10:00 +18°C° 0 mm 2 mps 732 mmHg 70%
    11:00 +20°C° 0 mm 2 mps 732 mmHg 62%
    12:00 +23°C° 0 mm 2 mps 732 mmHg 54%
    13:00 +22°C° 0 mm 3 mps 732 mmHg 53%
    14:00 +22°C° 0 mm 3 mps 732 mmHg 53%
    15:00 +21°C° 0 mm 3 mps 731 mmHg 53%
    16:00 +21°C° 0 mm 3 mps 732 mmHg 54%
    17:00 +20°C° 0 mm 2 mps 732 mmHg 55%
    18:00 +20°C° 0 mm 2 mps 732 mmHg 57%
    19:00 +18°C° 0 mm 2 mps 732 mmHg 62%
    20:00 +16°C° 0 mm 1 mps 733 mmHg 67%
    21:00 +14°C° 0 mm 1 mps 733 mmHg 72%
    22:00 +14°C° 0 mm 1 mps 733 mmHg 76%
    23:00 +13°C° 0 mm 2 mps 734 mmHg 79%

    4 June, Thursday

    Time Temperature Precipitation Wind Pressure Humidity
    00:00 +13°C° 0 mm 2 mps 734 mmHg 83%
    01:00 +12°C° 0 mm 2 mps 735 mmHg 87%
    02:00 +10°C° 0 mm 2 mps 735 mmHg 90%
    03:00 +10°C° 0 mm 2 mps 735 mmHg 94%
    04:00 +12°C° 0 mm 1 mps 736 mmHg 89%
    05:00 +12°C° 0 mm 1 mps 736 mmHg 85%
    06:00 +13°C° 0 mm 1 mps 736 mmHg 80%
    07:00 +15°C° 0 mm 1 mps 737 mmHg 72%
    08:00 +18°C° 0 mm 1 mps 737 mmHg 64%
    09:00 +19°C° 0 mm 2 mps 737 mmHg 56%
    10:00 +19°C° 0 mm 2 mps 737 mmHg 57%
    11:00 +19°C° 0 mm 3 mps 737 mmHg 57%
    12:00 +19°C° 0 mm 3 mps 737 mmHg 58%
    13:00 +19°C° 0 mm 3 mps 736 mmHg 57%
    14:00 +19°C° 0 mm 3 mps 736 mmHg 56%
    15:00 +19°C° 0 mm 3 mps 736 mmHg 56%
    16:00 +18°C° 0 mm 3 mps 736 mmHg 58%
    17:00 +17°C° 0 mm 3 mps 735 mmHg 60%
    18:00 +16°C° 0 mm 2 mps 735 mmHg 62%
    19:00 +14°C° 0 mm 2 mps 735 mmHg 68%
    20:00 +12°C° 0 mm 1 mps 735 mmHg 74%
    21:00 +11°C° 0 mm 1 mps 735 mmHg 81%
    22:00 +10°C° 0 mm 1 mps 735 mmHg 81%
    23:00 +10°C° 0 mm 1 mps 735 mmHg 80%
    Show more